| time (UTC) | temp F | wind direction | speed MPH | gust MPH | rain 1hr in | rain 24hr in | rain mn in | humidity % | barometer mb |
| 20260902083518 | 69 | 0.0 | 0.0 | 0.09 | 0.09 | 0.09 | 84 | 1014.7 | |
| 20260902082519 | 70 | 0.0 | 0.0 | 0.06 | 0.06 | 0.06 | 83 | 1014.0 | |
| 20260902081535 | 70 | 0.0 | 0.0 | 0.06 | 0.06 | 0.06 | 85 | 1013.1 | |
| 20260902080518 | 70 | 0.0 | 0.0 | 0.00 | 0.00 | 0.00 | 86 | 1013.0 | |
| 20260902075600 | 70 | 0.0 | 0.0 | 0.00 | 0.00 | 0.00 | 87 | 1012.2 | |
| 20260902074518 | 70 | 0.0 | 0.0 | 0.00 | 0.00 | 0.00 | 87 | 1012.4 | |
| 20260902073518 | 70 | 0.0 | 0.0 | 0.00 | 0.00 | 0.00 | 87 | 1013.0 | |
| 20260902072518 | 70 | 0.0 | 0.0 | 0.00 | 0.00 | 0.00 | 87 | 1013.4 | |
| 20260902071518 | 70 | 0.0 | 0.0 | 0.00 | 0.00 | 0.00 | 87 | 1013.1 | |
| 20260902070518 | 70 | 0.0 | 0.0 | 0.00 | 0.00 | 0.00 | 88 | 1013.3 | |
| 20260902065518 | 70 | 0.0 | 0.0 | 0.00 | 0.00 | 0.00 | 88 | 1013.3 | |
| 20260902064607 | 70 | 0.0 | 0.0 | 0.00 | 0.00 | 0.00 | 88 | 1013.5 | |
| 20260902063538 | 71 | 0.0 | 0.0 | 0.00 | 0.00 | 0.00 | 88 | 1013.5 | |
| 20260902062519 | 71 | 0.0 | 0.0 | 0.00 | 0.00 | 0.00 | 88 | 1013.4 | |
| 20260902061538 | 70 | 0.0 | 1.0 | 0.00 | 0.00 | 0.00 | 88 | 1013.3 | |
| 20260902060520 | 70 | 0.0 | 0.0 | 0.00 | 0.00 | 0.00 | 88 | 1013.8 | |
| 20260902055520 | 69 | 0.0 | 0.0 | 0.00 | 0.00 | 0.00 | 88 | 1014.0 | |
| 20260902054518 | 69 | 0.0 | 0.0 | 0.00 | 0.00 | 0.00 | 88 | 1013.5 | |
| 20260902053529 | 69 | 0.0 | 0.0 | 0.00 | 0.00 | 0.00 | 88 | 1013.2 | |
| 20260902052546 | 69 | 0.0 | 0.0 | 0.00 | 0.00 | 0.00 | 88 | 1013.4 | |
| 20260902051540 | 69 | 0.0 | 0.0 | 0.00 | 0.00 | 0.00 | 89 | 1013.4 | |
| 20260902050520 | 69 | 0.0 | 0.0 | 0.00 | 0.00 | 0.00 | 89 | 1013.9 | |
| 20260902045540 | 69 | 0.0 | 0.0 | 0.00 | 0.00 | 0.00 | 88 | 1013.6 | |
| 20260902044520 | 69 | 0.0 | 0.0 | 0.00 | 0.00 | 0.00 | 88 | 1013.3 | |
| 20260902043537 | 70 | 0.0 | 0.0 | 0.00 | 0.00 | 0.00 | 88 | 1013.2 | |
| 20260902042520 | 70 | 0.0 | 0.0 | 0.00 | 0.00 | 0.00 | 87 | 1013.1 | |
| 20260902041519 | 71 | 0.0 | 0.0 | 0.00 | 0.00 | 0.00 | 86 | 1013.4 | |
| 20260902040529 | 71 | 0.0 | 0.0 | 0.00 | 0.00 | 0.00 | 86 | 1013.6 | |
| 20260902035520 | 71 | 0.0 | 0.0 | 0.00 | 0.00 | 0.00 | 85 | 1013.7 | |
| 20260902034520 | 72 | 0.0 | 0.0 | 0.00 | 0.00 | 0.00 | 84 | 1013.4 | |
| 20260902033520 | 72 | 0.0 | 0.0 | 0.00 | 0.00 | 0.00 | 83 | 1013.4 | |
| 20260902032519 | 73 | 0.0 | 0.0 | 0.00 | 0.00 | 0.00 | 82 | 1013.5 | |
| 20260902031529 | 73 | 0.0 | 0.0 | 0.00 | 0.00 | 0.00 | 81 | 1013.6 | |
| 20260902030520 | 74 | 0.0 | 0.0 | 0.00 | 0.00 | 0.00 | 80 | 1013.7 | |
| 20260902025540 | 74 | 0.0 | 0.0 | 0.00 | 0.00 | 0.00 | 79 | 1013.7 | |
| 20260902024528 | 74 | 0.0 | 0.0 | 0.00 | 0.00 | 0.00 | 78 | 1013.4 | |
| 20260902023520 | 75 | 0.0 | 0.0 | 0.00 | 0.00 | 0.00 | 77 | 1013.3 | |
| 20260902022802 | 75 | 0.0 | 0.0 | 0.00 | 0.00 | 0.00 | 76 | 1013.3 | |
| 20260902021528 | 75 | 0.0 | 0.0 | 0.00 | 0.00 | 0.00 | 76 | 1013.1 | |
| 20260902020537 | 76 | 0.0 | 0.0 | 0.00 | 0.00 | 0.00 | 75 | 1013.2 | |
| 20260902015520 | 76 | 0.0 | 0.0 | 0.00 | 0.00 | 0.00 | 75 | 1013.0 | |
| 20260902014520 | 77 | 0.0 | 0.0 | 0.00 | 0.00 | 0.00 | 75 | 1012.6 | |
| 20260902013557 | 77 | 0.0 | 0.0 | 0.00 | 0.00 | 0.00 | 74 | 1012.5 | |
| 20260902012520 | 78 | 0.0 | 0.0 | 0.00 | 0.00 | 0.00 | 74 | 1012.4 | |
| 20260902011520 | 79 | 0.0 | 0.0 | 0.00 | 0.00 | 0.00 | 73 | 1012.2 | |
| 20260902010528 | 79 | 0.0 | 0.0 | 0.00 | 0.00 | 0.00 | 71 | 1012.3 | |
| 20260902005529 | 80 | 0.0 | 0.0 | 0.00 | 0.00 | 0.00 | 71 | 1012.4 | |
| 20260902004519 | 80 | 0.0 | 0.0 | 0.00 | 0.00 | 0.00 | 69 | 1012.4 | |
| 20260902003537 | 81 | 0.0 | 0.0 | 0.00 | 0.00 | 0.00 | 69 | 1012.5 | |
| 20260902002520 | 81 | 0.0 | 1.0 | 0.00 | 0.00 | 0.00 | 68 | 1012.6 | |
| 20260902001519 | 82 | 0.0 | 0.0 | 0.00 | 0.00 | 0.00 | 67 | 1012.5 | |
| 20260902000519 | 82 | 0.0 | 1.0 | 0.00 | 0.00 | 0.00 | 66 | 1012.5 | |
| 20260901235715 | 83 | 0.0 | 0.0 | 0.00 | 0.00 | 0.00 | 66 | 1012.5 | |
| 20260901234537 | 83 | 0.0 | 0.0 | 0.00 | 0.00 | 0.00 | 64 | 1012.3 | |
| 20260901233520 | 84 | 0.0 | 0.0 | 0.00 | 0.00 | 0.00 | 63 | 1012.3 | |
| 20260901232520 | 84 | 0.0 | 0.0 | 0.00 | 0.00 | 0.00 | 63 | 1012.4 | |
| 20260901231520 | 85 | 0.0 | 0.0 | 0.00 | 0.00 | 0.00 | 62 | 1012.2 | |
| 20260901230519 | 85 | 0.0 | 0.0 | 0.00 | 0.00 | 0.00 | 60 | 1012.0 | |
| 20260901225519 | 86 | 0.0 | 0.0 | 0.00 | 0.00 | 0.00 | 57 | 1011.8 | |
| 20260901224519 | 86 | 0.0 | 1.0 | 0.00 | 0.00 | 0.00 | 57 | 1012.0 | |
| 20260901223528 | 86 | 0.0 | 2.0 | 0.00 | 0.00 | 0.00 | 56 | 1012.0 | |
| 20260901222528 | 87 | 0.0 | 2.0 | 0.00 | 0.00 | 0.00 | 54 | 1012.1 | |
| 20260901221520 | 88 | 0.0 | 3.0 | 0.00 | 0.00 | 0.00 | 54 | 1012.3 | |
| 20260901220519 | 88 | 0.0 | 3.0 | 0.00 | 0.00 | 0.00 | 56 | 1012.3 | |
| 20260901215519 | 89 | 158 | 1.0 | 7.0 | 0.00 | 0.00 | 0.00 | 56 | 1012.4 |
| 20260901214536 | 89 | 0.0 | 0.0 | 0.00 | 0.00 | 0.00 | 57 | 1012.4 | |
| 20260901213536 | 89 | 0.0 | 3.0 | 0.00 | 0.00 | 0.00 | 55 | 1012.2 | |
| 20260901212540 | 90 | 0.0 | 3.0 | 0.00 | 0.00 | 0.00 | 52 | 1012.3 | |
| 20260901211520 | 91 | 0.0 | 3.0 | 0.00 | 0.00 | 0.00 | 49 | 1012.3 | |
| 20260901210539 | 91 | 0.0 | 2.0 | 0.00 | 0.00 | 0.00 | 48 | 1012.3 | |
| 20260901205519 | 93 | 0.0 | 2.0 | 0.00 | 0.00 | 0.00 | 48 | 1012.4 | |
| 20260901204700 | 92 | 203 | 1.0 | 3.0 | 0.00 | 0.00 | 0.00 | 48 | 1012.4 |
| 20260901204019 | 92 | 158 | 1.0 | 5.0 | 0.00 | 0.00 | 0.00 | 46 | 1012.5 |
| 20260901203108 | 93 | 0.0 | 2.0 | 0.00 | 0.00 | 0.00 | 46 | 1012.5 | |
| 20260901202028 | 94 | 0.0 | 2.0 | 0.00 | 0.00 | 0.00 | 46 | 1012.8 | |
| 20260901201028 | 93 | 0.0 | 0.0 | 0.00 | 0.00 | 0.00 | 48 | 1012.8 | |
| 20260901200048 | 93 | 0.0 | 5.0 | 0.00 | 0.00 | 0.00 | 47 | 1013.0 | |
| 20260901195028 | 92 | 0.0 | 1.0 | 0.00 | 0.00 | 0.00 | 49 | 1013.1 | |
| 20260901194019 | 91 | 0.0 | 2.0 | 0.00 | 0.00 | 0.00 | 50 | 1013.1 | |
| 20260901193019 | 91 | 0.0 | 3.0 | 0.00 | 0.00 | 0.00 | 49 | 1013.2 | |
| 20260901192019 | 90 | 0.0 | 1.0 | 0.00 | 0.00 | 0.00 | 54 | 1013.2 | |
| 20260901191059 | 91 | 180 | 1.0 | 4.0 | 0.00 | 0.00 | 0.00 | 51 | 1013.4 |
| 20260901190019 | 91 | 0.0 | 2.0 | 0.00 | 0.00 | 0.00 | 53 | 1013.5 | |
| 20260901185105 | 90 | 0.0 | 2.0 | 0.00 | 0.00 | 0.00 | 51 | 1013.5 | |
| 20260901184105 | 91 | 0.0 | 2.0 | 0.00 | 0.00 | 0.00 | 51 | 1013.7 | |
| 20260901183028 | 90 | 0.0 | 2.0 | 0.00 | 0.00 | 0.00 | 50 | 1013.6 | |
| 20260901182019 | 89 | 0.0 | 2.0 | 0.00 | 0.00 | 0.00 | 56 | 1013.6 | |
| 20260901181019 | 89 | 0.0 | 2.0 | 0.00 | 0.00 | 0.00 | 55 | 1013.7 | |
| 20260901180037 | 89 | 0.0 | 2.0 | 0.00 | 0.00 | 0.00 | 56 | 1013.7 | |
| 20260901175019 | 90 | 0.0 | 4.0 | 0.00 | 0.00 | 0.00 | 55 | 1013.9 | |
| 20260901174039 | 90 | 0.0 | 0.0 | 0.00 | 0.00 | 0.00 | 57 | 1013.9 | |
| 20260901173019 | 90 | 0.0 | 3.0 | 0.00 | 0.00 | 0.00 | 53 | 1013.9 | |
| 20260901172027 | 90 | 0.0 | 1.0 | 0.00 | 0.00 | 0.00 | 52 | 1013.9 | |
| 20260901171028 | 89 | 0.0 | 1.0 | 0.00 | 0.00 | 0.00 | 60 | 1014.0 | |
| 20260901170045 | 89 | 0.0 | 3.0 | 0.00 | 0.00 | 0.00 | 51 | 1014.1 | |
| 20260901165019 | 88 | 0.0 | 2.0 | 0.00 | 0.00 | 0.00 | 57 | 1014.1 | |
| 20260901164037 | 88 | 0.0 | 2.0 | 0.00 | 0.00 | 0.00 | 58 | 1014.2 | |
| 20260901163019 | 88 | 0.0 | 0.0 | 0.00 | 0.00 | 0.00 | 63 | 1014.3 | |
| 20260901162218 | 87 | 0.0 | 2.0 | 0.00 | 0.00 | 0.00 | 63 | 1014.4 | |
| 20260901161536 | 87 | 0.0 | 2.0 | 0.00 | 0.00 | 0.00 | 62 | 1014.5 | |
| 20260901160519 | 86 | 0.0 | 1.0 | 0.00 | 0.00 | 0.00 | 64 | 1014.3 | |
| 20260901155519 | 86 | 0.0 | 0.0 | 0.00 | 0.00 | 0.00 | 65 | 1014.5 | |
| 20260901154519 | 85 | 0.0 | 0.0 | 0.00 | 0.00 | 0.00 | 69 | 1014.5 | |
| 20260901153536 | 84 | 0.0 | 1.0 | 0.00 | 0.00 | 0.00 | 73 | 1014.5 | |
| 20260901152657 | 84 | 0.0 | 1.0 | 0.00 | 0.00 | 0.00 | 71 | 1014.5 | |
| 20260901151519 | 83 | 0.0 | 0.0 | 0.00 | 0.00 | 0.00 | 73 | 1014.5 | |
| 20260901150535 | 82 | 0.0 | 1.0 | 0.00 | 0.00 | 0.00 | 77 | 1014.4 | |
| 20260901145545 | 81 | 0.0 | 1.0 | 0.00 | 0.00 | 0.00 | 78 | 1014.4 | |
| 20260901144519 | 80 | 0.0 | 0.0 | 0.00 | 0.00 | 0.00 | 84 | 1014.3 | |
| 20260901143535 | 78 | 0.0 | 0.0 | 0.00 | 0.00 | 0.00 | 84 | 1014.4 | |
| 20260901142519 | 77 | 0.0 | 0.0 | 0.00 | 0.00 | 0.00 | 83 | 1014.4 | |
| 20260901141527 | 77 | 0.0 | 0.0 | 0.00 | 0.00 | 0.00 | 85 | 1014.4 | |
| 20260901140519 | 76 | 0.0 | 0.0 | 0.00 | 0.00 | 0.00 | 87 | 1014.6 | |
| 20260901135519 | 76 | 0.0 | 0.0 | 0.00 | 0.00 | 0.00 | 88 | 1014.6 | |
| 20260901134519 | 75 | 0.0 | 0.0 | 0.00 | 0.00 | 0.00 | 81 | 1014.5 | |
| 20260901133519 | 74 | 0.0 | 0.0 | 0.00 | 0.00 | 0.00 | 80 | 1014.5 | |
| 20260901132519 | 72 | 0.0 | 0.0 | 0.00 | 0.00 | 0.00 | 81 | 1014.5 | |
| 20260901131539 | 71 | 0.0 | 0.0 | 0.00 | 0.00 | 0.00 | 81 | 1014.4 | |
| 20260901130544 | 71 | 0.0 | 0.0 | 0.00 | 0.00 | 0.00 | 81 | 1014.5 | |
| 20260901125519 | 70 | 0.0 | 0.0 | 0.00 | 0.00 | 0.00 | 81 | 1014.3 | |
| 20260901124539 | 70 | 0.0 | 0.0 | 0.00 | 0.00 | 0.00 | 81 | 1014.2 | |
| 20260901123519 | 70 | 0.0 | 0.0 | 0.00 | 0.00 | 0.00 | 81 | 1014.3 | |
| 20260901122519 | 69 | 0.0 | 0.0 | 0.00 | 0.00 | 0.00 | 81 | 1014.1 | |
| 20260901121527 | 69 | 0.0 | 0.0 | 0.00 | 0.00 | 0.00 | 81 | 1013.9 | |
| 20260901120536 | 69 | 0.0 | 0.0 | 0.00 | 0.00 | 0.00 | 81 | 1013.9 | |
| 20260901115519 | 69 | 0.0 | 0.0 | 0.00 | 0.00 | 0.00 | 81 | 1013.8 | |
| 20260901114519 | 69 | 0.0 | 0.0 | 0.00 | 0.00 | 0.00 | 81 | 1013.6 | |
| 20260901113536 | 69 | 0.0 | 0.0 | 0.00 | 0.00 | 0.00 | 80 | 1013.6 | |
| 20260901112544 | 69 | 0.0 | 0.0 | 0.00 | 0.00 | 0.00 | 80 | 1013.6 | |
| 20260901111536 | 69 | 0.0 | 0.0 | 0.00 | 0.00 | 0.00 | 80 | 1013.4 | |
| 20260901111025 | 70 | 0.0 | 0.0 | 0.00 | 0.00 | 0.00 | 80 | 1013.2 | |
| 20260901110528 | 70 | 0.0 | 0.0 | 0.00 | 0.00 | 0.00 | 80 | 1013.2 | |
| 20260901105544 | 70 | 0.0 | 0.0 | 0.00 | 0.00 | 0.00 | 80 | 1013.3 | |
| 20260901104519 | 70 | 0.0 | 0.0 | 0.00 | 0.00 | 0.00 | 81 | 1013.1 | |
| 20260901104036 | 70 | 0.0 | 0.0 | 0.00 | 0.00 | 0.00 | 80 | 1013.1 | |
| 20260901103038 | 70 | 0.0 | 0.0 | 0.00 | 0.00 | 0.00 | 80 | 1013.3 | |
| 20260901102019 | 70 | 0.0 | 0.0 | 0.00 | 0.00 | 0.00 | 80 | 1013.1 | |
| 20260901101019 | 70 | 0.0 | 0.0 | 0.00 | 0.00 | 0.00 | 80 | 1012.8 | |
| 20260901100038 | 70 | 0.0 | 0.0 | 0.00 | 0.00 | 0.00 | 80 | 1012.8 | |
| 20260901095018 | 70 | 0.0 | 0.0 | 0.00 | 0.00 | 0.00 | 80 | 1012.7 | |
| 20260901094035 | 70 | 0.0 | 0.0 | 0.00 | 0.00 | 0.00 | 80 | 1013.0 | |
| 20260901093027 | 70 | 0.0 | 0.0 | 0.00 | 0.00 | 0.00 | 80 | 1013.1 | |
| 20260901092039 | 70 | 0.0 | 0.0 | 0.00 | 0.00 | 0.00 | 80 | 1013.1 | |
| 20260901091027 | 71 | 0.0 | 0.0 | 0.00 | 0.00 | 0.00 | 80 | 1013.1 | |
| 20260901090035 | 70 | 0.0 | 0.0 | 0.00 | 0.00 | 0.00 | 80 | 1013.0 | |
| 20260901085018 | 70 | 0.0 | 0.0 | 0.00 | 0.00 | 0.00 | 80 | 1013.2 | |
| 20260901084058 | 70 | 0.0 | 0.0 | 0.00 | 0.00 | 0.00 | 80 | 1013.2 |